Regional Weather Roundup
Issued by NWS

Home | Current Version | Previous Version | Text Only | Print | Product List | Glossary On
Versions: 1 2 3 4 5 6 7 8 9 10 11 12 13 14 15 16 17 18 19 20 21 22 23 24 25 26 27 28 29 30 31 32 33 34 35 36 37 38 39 40 41 42 43 44 45 46 47 48 49 50
000
ASHW40 PHFO 301843
RWRHI

WEATHER ROUNDUP FOR HAWAII
NATIONAL WEATHER SERVICE HONOLULU HI
800 AM HST THU OCT 30 2014

THIS IS AN AUTOMATED REPORT THAT HAS NOT BEEN QUALITY CONTROLLED.

NOTE..."FAIR" INDICATES FEW OR NO CLOUDS BELOW 12,000 FEET WITH NO
SIGNIFICANT WEATHER AND/OR OBSTRUCTIONS TO VISIBILITY.

* - THESE SITES REPORT LIMITED FIELDS

HIZ001>004-301900-
KAUAI-NIIHAU-

CITY           SKY/WX    TMP DP  RH WIND       PRES   REMARKS
LIHUE APT      CLOUDY    79  69  71 NE16      30.11R
PORT ALLEN*      N/A     77 N/A N/A E9G16       N/A
POIPU*           N/A     77 N/A N/A NE9G21      N/A
PRINCEVILLE*     N/A     75 N/A N/A MISG        N/A
KOKOLE POINT*  NOT AVBL
MOLOAA DAIRY*  NOT AVBL
WAIMEA HTS*      N/A     77  66  69 W3G9        N/A
PUU OPAE*        N/A     72  63  73 CALM        N/A
PUU LUA*       NOT AVBL
MAKAHA RIDGE*  NOT AVBL
$$

HIZ005>011-301900-
OAHU-

CITY           SKY/WX    TMP DP  RH WIND       PRES   REMARKS
HONOLULU       PTSUNNY   80  67  64 NE12      30.07R
KALAELOA       CLOUDY    78  69  73 VRB3      30.09R
KANEOHE MCB    CLOUDY    80  69  69 NE9       30.09R
WHEELER FIELD  FAIR      74  66  75 NE9       30.10R
BELLOWS*         N/A    N/A N/A N/A NE17        N/A
KAHUKU*          N/A    N/A N/A N/A NE7G15      N/A
WHEELER*       NOT AVBL
WAIANAE HARBOR NOT AVBL
DILLINGHAM*      N/A     66  63  88 E2          N/A
KAHUKU TRN*      N/A     72  64  78 E9G18       N/A
KAWAILOA*        N/A     72  66  83 E7G18       N/A
KII*             N/A     79  68  69 NE15G21     N/A
MAKUA RANGE*     N/A     79  68  69 E7G22       N/A
OAHU FOREST NW   N/A     66  66 100 N22G40      N/A
SCHOFIELD BRK*   N/A     64  59  82 CALM        N/A
SCHOFIELD S*   NOT AVBL
WAIANAE VLY*     N/A     75  63  64 NE3G16      N/A
KUAOKALA*        N/A     73  66  78 CALM        N/A
HONOULIUULI*   NOT AVBL
MOKUOLOE IS*     N/A    N/A N/A N/A MISG        N/A
PALEHUA*         N/A     81  66  61 CALM        N/A
WAIAWA PHB*    NOT AVBL
$$

HIZ012>013-301900-
MOLOKAI-

CITY           SKY/WX    TMP DP  RH WIND       PRES   REMARKS
MOLOKAI AIRPT  MOSUNNY   78  70  76 NE14G26   30.08R
KALAUPAPA      NOT AVBL
MAKAPULAPAI*     N/A     81  68  65 E21G29      N/A
MOLOKAI 1*       N/A     72  61  68 NE7G18      N/A
PUU ALII*        N/A     59  58  95 E3G15       N/A
$$

HIZ016-301900-
KAHOOLAWE-

CITY           SKY/WX    TMP DP  RH WIND       PRES   REMARKS
KAHOOLAWE*       N/A     73 N/A N/A NW8G14      N/A
HAKIOAWA*      NOT AVBL
HONOKANAIA*      N/A     80  67  65 VRB5G12   30.07R
KANELOA*         N/A     73  64  73 NE9G25    29.27R
KEALIALALO*    NOT AVBL
LUA MAKIKA*    NOT AVBL
$$

HIZ014>015-301900-
LANAI-

CITY           SKY/WX    TMP DP  RH WIND       PRES   REMARKS
LANAI CITY     FAIR      75  62  64 E17G30    30.10R
LANAI 1*         N/A     73  70  88 NE32G49     N/A
$$

HIZ017>028-301900-
MAUI-

CITY           SKY/WX    TMP DP  RH WIND       PRES   REMARKS
KAHULUI        MOSUNNY   79  64  60 NE12      30.08R
KAPALUA-W MAUI MOSUNNY   75  68  78 NE16      30.06
HANA AIRPORT   MOSUNNY   77  66  69 E6        30.13R
HANA*            N/A     77 N/A N/A CALM        N/A
HALEAKALA SUMM   N/A     46  27  46 NE17        N/A
MAALAEA BAY*   NOT AVBL
HALEAKALA*     NOT AVBL
KAUPO GAP*       N/A     72  45  37 S8G18       N/A
KULA 1*          N/A    N/A N/A N/A CALM        N/A
$$

HIZ023>026-301900-
BIG ISLAND OF HAWAII COAST AND LOWER SLOPES-

CITY           SKY/WX    TMP DP  RH WIND       PRES   REMARKS
KAILUA KONA    SUNNY     81  68  64 SE6       30.00R
HILO           PTSUNNY   76  68  76 VRB3      30.09R
HONOKAA*       NOT AVBL
KAWAIHAE MWT*    N/A     82 N/A N/A VRB1G7      N/A
KAWAIHAE*        N/A     82 N/A N/A W7          N/A
SOUTH POINT*     N/A     72 N/A N/A N9          N/A
UPOLU AIRPORT*   N/A    N/A N/A N/A NE20G32     N/A
KAMUELA*       CLEAR     68  61  77 NE17G30   30.15R
HAKALAU*         N/A     58  37  46 NW2         N/A
KALOKO-HONOKO*   N/A     82  68  61 E5          N/A
PALI 2*          N/A     72  55  56 N22G31      N/A
KEALAKOMO*       N/A     79  63  57 N26G36      N/A
KAUPULEHU*       N/A     77  63  61 W12         N/A
KAPAPALA*        N/A     69  61  75 CALM        N/A
LOWER KAHUKU*  NOT AVBL
PUHE CS*       NOT AVBL
PUHO CS*         N/A     75  59  57 E3          N/A
PTA KEAMUKU*     N/A     66  50  55 NE14G33     N/A
WAIKOLOA*        N/A     79  59  50 E22G31      N/A
$$

HIZ027>028-301900-
BIG ISLAND OF HAWAII INTERIOR AND SUMMMITS-

CITY           SKY/WX    TMP DP  RH WIND       PRES   REMARKS
BRADSHAW FIELD SUNNY     54  49  82 SE8       30.39R
MK VISITOR CEN NOT AVBL
MAUNA KEA*       N/A     39   0  19 CALM        N/A
MAUNA LOA*       N/A     48  -9   9 MISG        N/A
MAUNA LOA 1*   NOT AVBL
PTA KIPUKA*      N/A     64  46  52 SW2         N/A
PTA RANGE 17*    N/A     57  46  67 E9          N/A
PTA WEST*        N/A     66  48  52 SE12G18     N/A
NENE CABIN*      N/A     54  34  47 N5          N/A
AHUMOA*          N/A     65  42  43 W3          N/A
PTA PORTABLE*  NOT AVBL
PUU MALI*      NOT AVBL
$$

HIC003-301900-
NORTHWEST ISLANDS-

CITY           SKY/WX    TMP DP  RH WIND       PRES   REMARKS
MIDWAY ISLAND  MOCLDY    81  75  83 SE18G25   30.05R
MIDWAY NOS*    NOT AVBL
FRENCH FRIGATE NOT AVBL
$$

PHZ110>124-180-301900-
BUOY REPORTS

STATION/POSITION TIME  TEMP    WIND        PRES    WAVE   SWELL
                       AIR SEA DIR/SP/G            HT/PER HT/DIR
                 (UTC) (F)     (DEG/KT/KT) (MB)    (FT/S) (FT/D)
BUOY 51001       NOT AVBL
BUOY 51101       NOT AVBL
BUOY 51100       1800   75      50/ 17       N/A
BUOY 51003       1800   81 82   70/ 17/ 21 1016.7R   9/11   5
BUOY 51004       1714   79 81   50/ 16/ 19 1016.0R   7/ 8   5/100
BARBERS PT BUOY  NOT AVBL
WAIMEA BAY BUOY  1800      81                N/A    10/11   7/350
KAILUA BAY BUOY  1800      81                N/A    11/10   7/350
LANAI BUOY       1800      81                N/A     3/14   2/200
BARBERS PT 2     1800      82                N/A     5/13   3/210
PAUWELA MAUI     1800      80                N/A     9/11   7/350
HILO             1800      81                N/A     8/10   3/350
KANEOHE BAY BUOY NOT AVBL
HANALEI KAUAI    NOT AVBL
KAHULUI HARBOR   1800   78 80   30/ 12/ 15 1018.7R
HONOLULU HARBOR  1800   80      70/  4/ 10 1018.9R
KILO NALU        NOT AVBL
HILO HARBOR      1800   76     300/  7/  8 1018.3R
MOKUOLOE         1800   79 81   80/ 11/ 13 1019.2R
NAWILIWILI       1800      83                N/A
WHOTS BUOY       NOT AVBL
BUOY 51028       NOT AVBL
$$

......................KEY........................................
  SKY/WX - SKY CONDITIONS/PRESENT WEATHER
  TMP    - TEMPERATURE IN FAHRENHEIT
  DWPT   - DEWPOINT IN FAHRENHEIT
  RH     - RELATIVE HUMIDITY IN PERCENT
  WIND   - DIRECTION AND SPEED /MPH FOR ISLANDS...KTS FOR BUOYS/
  PRES   - MEAN SEA LEVEL PRESSURE IN INCHES OF HG
  VSB    - VISIBILITY IN MILES
  HX     - HEAT INDEX
  WCI    - WIND CHILL INDEX
  VRB    - VARIABLE WIND DIRECTION
  N/A    - NOT AVAILABLE



USA.gov is the U.S. government's official web portal to all federal, state and local government web resources and services.